ASL27D LYBE-LSZH

Flight info

Callsign ASL27D
Flight time 1h 24m
Altitude 36000
Route TUVAR4V/30R TUVAR DCT BEDOX DCT ERKIR DCT KPT L856 NEGRA NEGRA2A
Aircraft A319/M-SDE3/2105

Departure

Time 2026-04-26 10:45
Airport Belgrade Nikola Tesla Airport (LYBE)

Arrival

Time 2026-04-26 12:10
Airport Zürich Airport (LSZH)
Time Latitude Longitude Altitude Speed Heading
2026-04-26 10:24 44.82138 20.29143 342 ft 0 kts 212°
2026-04-26 10:35 44.82149 20.29154 342 ft 2 kts 211°
2026-04-26 10:36 44.82162 20.29165 342 ft 2 kts 212°
2026-04-26 10:36 44.82175 20.29176 342 ft 2 kts 212°
2026-04-26 10:36 44.82184 20.29183 342 ft 1 kts 212°
2026-04-26 10:36 44.82197 20.29190 342 ft 2 kts 173°
2026-04-26 10:37 44.82211 20.29182 342 ft 2 kts 137°
2026-04-26 10:37 44.82216 20.29174 342 ft 1 kts 116°
2026-04-26 10:37 44.82218 20.29168 342 ft 0 kts 121°
2026-04-26 10:39 44.82196 20.29217 342 ft 17 kts 122°
2026-04-26 10:40 44.82120 20.29384 342 ft 22 kts 123°
2026-04-26 10:40 44.82082 20.29492 342 ft 9 kts 76°
2026-04-26 10:40 44.82122 20.29584 342 ft 13 kts 97°
2026-04-26 10:40 44.82051 20.29737 342 ft 26 kts 122°
2026-04-26 10:41 44.81941 20.29985 342 ft 30 kts 122°
2026-04-26 10:41 44.81833 20.30230 343 ft 28 kts 121°
2026-04-26 10:41 44.81730 20.30462 343 ft 27 kts 122°
2026-04-26 10:41 44.81629 20.30691 343 ft 26 kts 122°
2026-04-26 10:42 44.81531 20.30911 343 ft 26 kts 121°
2026-04-26 10:42 44.81436 20.31123 343 ft 25 kts 120°
2026-04-26 10:42 44.81343 20.31335 343 ft 24 kts 122°
2026-04-26 10:42 44.81252 20.31539 343 ft 24 kts 122°
2026-04-26 10:43 44.81164 20.31737 343 ft 23 kts 122°
2026-04-26 10:43 44.81077 20.31935 343 ft 23 kts 122°
2026-04-26 10:43 44.81008 20.32089 343 ft 12 kts 122°
2026-04-26 10:43 44.80994 20.32205 343 ft 12 kts 69°
2026-04-26 10:44 44.81059 20.32283 343 ft 12 kts 21°
2026-04-26 10:44 44.81145 20.32308 343 ft 13 kts 354°
2026-04-26 10:44 44.81234 20.32277 343 ft 13 kts 327°
2026-04-26 10:44 44.81318 20.32099 343 ft 49 kts 303°
2026-04-26 10:45 44.81653 20.31364 343 ft 126 kts 301°
2026-04-26 10:45 44.82201 20.30106 546 ft 165 kts 300°
2026-04-26 10:45 44.82768 20.28661 907 ft 178 kts 305°
2026-04-26 10:45 44.83434 20.27180 1524 ft 183 kts 306°
2026-04-26 10:46 44.84136 20.25639 2148 ft 193 kts 306°
2026-04-26 10:46 44.84875 20.24011 2712 ft 208 kts 306°
2026-04-26 10:46 44.85672 20.22244 3325 ft 223 kts 306°
2026-04-26 10:46 44.86397 20.20244 3938 ft 242 kts 294°
2026-04-26 10:47 44.86951 20.17927 4556 ft 259 kts 291°
2026-04-26 10:47 44.87504 20.15453 5168 ft 276 kts 291°
2026-04-26 10:47 44.88104 20.12806 5787 ft 291 kts 291°
2026-04-26 10:47 44.88744 20.10037 6400 ft 306 kts 291°
2026-04-26 10:48 44.89424 20.07141 7017 ft 320 kts 291°
2026-04-26 10:48 44.90144 20.04094 7642 ft 333 kts 291°
2026-04-26 10:48 44.90877 20.01002 8253 ft 344 kts 291°
2026-04-26 10:48 44.91635 19.97800 8862 ft 331 kts 291°
2026-04-26 10:49 44.92310 19.94923 9466 ft 294 kts 291°
2026-04-26 10:49 44.92911 19.92366 10082 ft 267 kts 291°
2026-04-26 10:49 44.93498 19.89895 10712 ft 266 kts 291°
2026-04-26 10:49 44.94083 19.87440 11331 ft 268 kts 291°
2026-04-26 10:50 44.94683 19.84925 11946 ft 271 kts 291°
2026-04-26 10:50 44.95083 19.83244 12357 ft 273 kts 291°
2026-04-26 10:50 44.95890 19.79846 13175 ft 278 kts 291°
2026-04-26 10:50 44.96501 19.77271 13793 ft 283 kts 291°
2026-04-26 10:51 44.97133 19.74605 14199 ft 295 kts 291°
2026-04-26 10:51 44.98495 19.68843 14869 ft 323 kts 291°
2026-04-26 10:51 44.99210 19.65808 15452 ft 328 kts 291°
2026-04-26 10:52 44.99929 19.62746 16080 ft 332 kts 291°
2026-04-26 10:52 45.00655 19.59642 16695 ft 335 kts 291°
2026-04-26 10:52 45.01382 19.56542 17274 ft 339 kts 291°
2026-04-26 10:52 45.02050 19.53683 17798 ft 342 kts 291°
2026-04-26 10:53 45.02672 19.51024 18276 ft 345 kts 291°
2026-04-26 10:53 45.03418 19.47828 18843 ft 348 kts 291°
2026-04-26 10:53 45.04173 19.44589 19412 ft 351 kts 291°
2026-04-26 10:54 45.05709 19.37992 20095 ft 357 kts 291°
2026-04-26 10:54 45.06484 19.34653 20097 ft 357 kts 290°
2026-04-26 10:54 45.07260 19.31302 20100 ft 357 kts 290°
2026-04-26 10:54 45.08029 19.27976 20102 ft 357 kts 290°
2026-04-26 10:55 45.08803 19.24624 20100 ft 357 kts 290°
2026-04-26 10:55 45.09576 19.21271 20102 ft 358 kts 290°
2026-04-26 10:55 45.10341 19.17947 20106 ft 358 kts 291°
2026-04-26 10:55 45.11114 19.14589 20110 ft 358 kts 291°
2026-04-26 10:56 45.11895 19.11258 20165 ft 361 kts 292°
2026-04-26 10:56 45.12803 19.07936 20664 ft 363 kts 295°
2026-04-26 10:56 45.13850 19.04680 21312 ft 362 kts 298°
2026-04-26 10:56 45.14988 19.01545 21969 ft 361 kts 300°
2026-04-26 10:57 45.16163 18.98369 22554 ft 362 kts 300°
2026-04-26 10:57 45.17326 18.95230 23039 ft 365 kts 300°
2026-04-26 10:57 45.18521 18.92008 23496 ft 369 kts 300°
2026-04-26 10:57 45.19716 18.88781 23949 ft 372 kts 300°
2026-04-26 10:58 45.20911 18.85549 24402 ft 375 kts 300°
2026-04-26 10:58 45.22131 18.82246 24872 ft 378 kts 300°
2026-04-26 10:58 45.23350 18.78939 25290 ft 381 kts 300°
2026-04-26 10:58 45.24581 18.75594 25722 ft 383 kts 300°
2026-04-26 10:59 45.25811 18.72248 26122 ft 386 kts 300°
2026-04-26 10:59 45.27061 18.68842 26523 ft 389 kts 300°
2026-04-26 10:59 45.28304 18.65450 26934 ft 391 kts 300°
2026-04-26 10:59 45.29559 18.62023 27332 ft 394 kts 300°
2026-04-26 11:00 45.30830 18.58547 27703 ft 397 kts 299°
2026-04-26 11:00 45.32115 18.55025 28080 ft 399 kts 299°
2026-04-26 11:00 45.33401 18.51499 28444 ft 402 kts 299°
2026-04-26 11:00 45.34693 18.47952 28801 ft 404 kts 299°
2026-04-26 11:01 45.35981 18.44411 29144 ft 407 kts 299°
2026-04-26 11:01 45.37288 18.40815 29501 ft 409 kts 299°
2026-04-26 11:01 45.38577 18.37261 29841 ft 411 kts 299°
2026-04-26 11:01 45.39899 18.33612 30165 ft 413 kts 298°
2026-04-26 11:02 45.41221 18.29956 30496 ft 415 kts 298°
2026-04-26 11:02 45.42532 18.26328 30832 ft 417 kts 298°
2026-04-26 11:02 45.43873 18.22608 31245 ft 417 kts 298°
2026-04-26 11:02 45.45194 18.18942 31729 ft 415 kts 298°
2026-04-26 11:03 45.46512 18.15278 32185 ft 413 kts 298°
2026-04-26 11:03 45.47823 18.11631 32603 ft 413 kts 298°
2026-04-26 11:03 45.49122 18.08012 33004 ft 412 kts 298°
2026-04-26 11:03 45.50432 18.04356 33423 ft 410 kts 298°
2026-04-26 11:04 45.51723 18.00749 33843 ft 409 kts 298°
2026-04-26 11:04 45.53017 17.97128 34234 ft 408 kts 297°
2026-04-26 11:04 45.54288 17.93568 34587 ft 407 kts 297°
2026-04-26 11:04 45.55589 17.89919 34897 ft 407 kts 297°
2026-04-26 11:05 45.56870 17.86314 35190 ft 408 kts 297°
2026-04-26 11:05 45.58154 17.82699 35358 ft 411 kts 297°
2026-04-26 11:05 45.59459 17.79023 35470 ft 415 kts 297°
2026-04-26 11:05 45.60757 17.75358 35582 ft 419 kts 297°
2026-04-26 11:06 45.62078 17.71626 35686 ft 423 kts 297°
2026-04-26 11:06 45.63425 17.67815 35786 ft 427 kts 297°
2026-04-26 11:06 45.66114 17.60191 35986 ft 433 kts 297°
2026-04-26 11:07 45.67464 17.56356 36135 ft 434 kts 297°
2026-04-26 11:07 45.68808 17.52530 36149 ft 434 kts 297°
2026-04-26 11:07 45.71510 17.44829 36155 ft 433 kts 297°
2026-04-26 11:08 45.74195 17.37154 36154 ft 433 kts 297°
2026-04-26 11:08 45.76884 17.29444 36150 ft 434 kts 297°
2026-04-26 11:09 45.79562 17.21741 36155 ft 433 kts 297°
2026-04-26 11:09 45.82240 17.14016 36153 ft 434 kts 297°
2026-04-26 11:10 45.84914 17.06280 36157 ft 434 kts 297°
2026-04-26 11:10 45.87583 16.98541 36159 ft 434 kts 297°
2026-04-26 11:11 45.90231 16.90835 36163 ft 434 kts 296°
2026-04-26 11:11 45.92895 16.83058 36157 ft 434 kts 296°
2026-04-26 11:12 45.95545 16.75300 36154 ft 434 kts 296°
2026-04-26 11:12 45.98187 16.67544 36157 ft 434 kts 297°
2026-04-26 11:13 46.00827 16.59771 36156 ft 434 kts 297°
2026-04-26 11:13 46.03480 16.51941 36146 ft 434 kts 297°
2026-04-26 11:14 46.06103 16.44177 36143 ft 434 kts 296°
2026-04-26 11:14 46.08722 16.36400 36141 ft 434 kts 296°
2026-04-26 11:15 46.11344 16.28586 36140 ft 434 kts 296°
2026-04-26 11:15 46.13960 16.20770 36137 ft 434 kts 296°
2026-04-26 11:16 46.16580 16.12918 36130 ft 435 kts 296°
2026-04-26 11:16 46.19183 16.05095 36138 ft 435 kts 296°
2026-04-26 11:17 46.21787 15.97246 36143 ft 435 kts 296°
2026-04-26 11:17 46.24386 15.89385 36149 ft 435 kts 296°
2026-04-26 11:18 46.26978 15.81547 36145 ft 434 kts 297°
2026-04-26 11:18 46.29736 15.73792 36144 ft 434 kts 298°
2026-04-26 11:19 46.32505 15.66087 36144 ft 434 kts 297°
2026-04-26 11:19 46.35267 15.58344 36152 ft 434 kts 297°
2026-04-26 11:20 46.37556 15.51891 36153 ft 434 kts 297°
2026-04-26 11:20 46.40752 15.42852 36152 ft 434 kts 297°
2026-04-26 11:21 46.43492 15.35070 36158 ft 435 kts 297°
2026-04-26 11:21 46.46240 15.27248 36154 ft 434 kts 297°
2026-04-26 11:22 46.48967 15.19461 36154 ft 434 kts 296°
2026-04-26 11:22 46.51686 15.11674 36153 ft 434 kts 296°
2026-04-26 11:23 46.54387 15.03911 36153 ft 434 kts 296°
2026-04-26 11:23 46.57116 14.96048 36155 ft 434 kts 296°
2026-04-26 11:24 46.59811 14.88258 36156 ft 434 kts 296°
2026-04-26 11:24 46.62514 14.80422 36162 ft 434 kts 296°
2026-04-26 11:25 46.65205 14.72597 36161 ft 434 kts 296°
2026-04-26 11:25 46.67884 14.64788 36158 ft 434 kts 296°
2026-04-26 11:26 46.70568 14.56940 36149 ft 434 kts 296°
2026-04-26 11:26 46.73257 14.49052 36147 ft 434 kts 296°
2026-04-26 11:27 46.75920 14.41214 36136 ft 434 kts 296°
2026-04-26 11:27 46.78584 14.33351 36142 ft 434 kts 295°
2026-04-26 11:28 46.81261 14.25427 36153 ft 435 kts 295°
2026-04-26 11:28 46.83918 14.17538 36162 ft 435 kts 295°
2026-04-26 11:29 46.86568 14.09643 36175 ft 435 kts 296°
2026-04-26 11:29 46.89212 14.01745 36179 ft 435 kts 295°
2026-04-26 11:30 46.91431 13.95101 36190 ft 435 kts 295°
2026-04-26 11:30 46.94511 13.85850 36193 ft 434 kts 295°
2026-04-26 11:31 46.97143 13.77912 36192 ft 434 kts 295°
2026-04-26 11:31 46.99769 13.69968 36185 ft 434 kts 295°
2026-04-26 11:32 47.02392 13.62011 36187 ft 434 kts 295°
2026-04-26 11:32 47.05009 13.54047 36194 ft 434 kts 295°
2026-04-26 11:33 47.07614 13.46099 36204 ft 434 kts 295°
2026-04-26 11:33 47.10215 13.38135 36203 ft 433 kts 295°
2026-04-26 11:34 47.12819 13.30137 36210 ft 433 kts 295°
2026-04-26 11:34 47.15401 13.22182 36210 ft 432 kts 295°
2026-04-26 11:35 47.17976 13.14225 36221 ft 432 kts 295°
2026-04-26 11:35 47.20109 13.07615 36228 ft 432 kts 295°
2026-04-26 11:36 47.23103 12.98308 36230 ft 432 kts 295°
2026-04-26 11:36 47.25667 12.90310 36232 ft 431 kts 295°
2026-04-26 11:37 47.28202 12.82378 36232 ft 431 kts 295°
2026-04-26 11:37 47.29479 12.78375 36063 ft 431 kts 295°
2026-04-26 11:37 47.30756 12.74361 36159 ft 432 kts 295°
2026-04-26 11:38 47.33286 12.66394 36224 ft 432 kts 295°
2026-04-26 11:38 47.35818 12.58393 36234 ft 432 kts 295°
2026-04-26 11:39 47.38353 12.50362 36238 ft 432 kts 295°
2026-04-26 11:39 47.40888 12.42304 36230 ft 432 kts 295°
2026-04-26 11:40 47.43408 12.34268 36232 ft 432 kts 294°
2026-04-26 11:40 47.45927 12.26207 36232 ft 432 kts 294°
2026-04-26 11:42 47.54756 11.93290 36225 ft 431 kts 282°
2026-04-26 11:43 47.55928 11.84595 36231 ft 431 kts 281°
2026-04-26 11:43 47.57066 11.75904 36235 ft 431 kts 281°
2026-04-26 11:44 47.58202 11.67179 36237 ft 431 kts 281°
2026-04-26 11:44 47.59323 11.58521 36238 ft 431 kts 281°
2026-04-26 11:45 47.60443 11.49824 36246 ft 431 kts 281°
2026-04-26 11:45 47.61555 11.41132 36244 ft 431 kts 281°
2026-04-26 11:46 47.62662 11.32430 36244 ft 431 kts 280°
2026-04-26 11:46 47.63764 11.23709 36233 ft 430 kts 280°
2026-04-26 11:47 47.64855 11.15032 36237 ft 430 kts 280°
2026-04-26 11:47 47.65943 11.06314 36237 ft 430 kts 280°
2026-04-26 11:48 47.67018 10.97643 36236 ft 430 kts 280°
2026-04-26 11:48 47.68095 10.88898 36238 ft 429 kts 280°
2026-04-26 11:49 47.69157 10.80219 36230 ft 429 kts 280°
2026-04-26 11:49 47.69682 10.75910 36024 ft 429 kts 280°
2026-04-26 11:49 47.70213 10.71530 35791 ft 429 kts 280°
2026-04-26 11:50 47.70743 10.67155 35557 ft 430 kts 280°
2026-04-26 11:50 47.71265 10.62821 35328 ft 431 kts 280°
2026-04-26 11:50 47.71787 10.58485 35097 ft 431 kts 279°
2026-04-26 11:50 47.72311 10.54109 34697 ft 432 kts 279°
2026-04-26 11:51 47.72836 10.49704 34114 ft 432 kts 279°
2026-04-26 11:51 47.73357 10.45317 33535 ft 434 kts 279°
2026-04-26 11:51 47.73858 10.40956 32970 ft 435 kts 278°
2026-04-26 11:51 47.74219 10.36494 32395 ft 437 kts 275°
2026-04-26 11:52 47.74397 10.31992 31858 ft 436 kts 271°
2026-04-26 11:52 47.74417 10.28977 31329 ft 439 kts 269°
2026-04-26 11:52 47.74305 10.23021 30179 ft 431 kts 268°
2026-04-26 11:52 47.74207 10.18692 29371 ft 419 kts 268°
2026-04-26 11:53 47.74106 10.14375 28636 ft 419 kts 268°
2026-04-26 11:53 47.74004 10.10041 27901 ft 421 kts 268°
2026-04-26 11:53 47.73902 10.05750 27181 ft 423 kts 268°
2026-04-26 11:54 47.73690 9.96963 25717 ft 429 kts 268°
2026-04-26 11:54 47.73582 9.92607 25004 ft 431 kts 267°
2026-04-26 11:54 47.73469 9.88129 24263 ft 433 kts 268°
2026-04-26 11:54 47.73354 9.83690 23566 ft 436 kts 268°
2026-04-26 11:55 47.73238 9.79198 22882 ft 438 kts 268°
2026-04-26 11:55 47.73118 9.74697 22206 ft 440 kts 268°
2026-04-26 11:55 47.72995 9.70100 21523 ft 443 kts 268°
2026-04-26 11:55 47.72871 9.65578 20852 ft 444 kts 268°
2026-04-26 11:56 47.72744 9.61014 20183 ft 437 kts 268°
2026-04-26 11:56 47.72620 9.56624 19530 ft 414 kts 268°
2026-04-26 11:56 47.72502 9.52523 18911 ft 399 kts 268°
2026-04-26 11:56 47.72383 9.48426 18330 ft 394 kts 268°
2026-04-26 11:57 47.72083 9.44435 17731 ft 391 kts 258°
2026-04-26 11:57 47.71492 9.41262 17221 ft 390 kts 253°
2026-04-26 11:57 47.70663 9.37439 16595 ft 389 kts 253°
2026-04-26 11:57 47.69833 9.33627 15968 ft 387 kts 252°
2026-04-26 11:58 47.69033 9.29858 15349 ft 386 kts 253°
2026-04-26 11:58 47.68244 9.26049 14722 ft 385 kts 253°
2026-04-26 11:58 47.67474 9.22279 14100 ft 384 kts 253°
2026-04-26 11:58 47.66708 9.18499 13430 ft 382 kts 253°
2026-04-26 11:59 47.65956 9.14779 12814 ft 381 kts 253°
2026-04-26 11:59 47.65200 9.11035 12172 ft 380 kts 253°
2026-04-26 11:59 47.64452 9.07324 11573 ft 369 kts 255°
2026-04-26 11:59 47.64071 9.03688 11107 ft 344 kts 269°
2026-04-26 12:00 47.64120 9.00298 10779 ft 319 kts 273°
2026-04-26 12:00 47.64227 8.97142 10480 ft 302 kts 273°
2026-04-26 12:00 47.64316 8.94078 10178 ft 291 kts 272°
2026-04-26 12:00 47.64381 8.91089 9869 ft 289 kts 272°
2026-04-26 12:01 47.64427 8.88132 9549 ft 288 kts 272°
2026-04-26 12:01 47.64462 8.85190 9233 ft 287 kts 271°
2026-04-26 12:01 47.64488 8.82245 8929 ft 285 kts 271°
2026-04-26 12:01 47.64510 8.79334 8631 ft 284 kts 271°
2026-04-26 12:02 47.64530 8.76403 8341 ft 283 kts 271°
2026-04-26 12:02 47.64542 8.74457 8146 ft 282 kts 271°
2026-04-26 12:02 47.64565 8.70573 7756 ft 281 kts 271°
2026-04-26 12:02 47.64581 8.67717 7469 ft 280 kts 271°
2026-04-26 12:03 47.64595 8.64821 7171 ft 280 kts 271°
2026-04-26 12:03 47.64609 8.61962 6877 ft 278 kts 271°
2026-04-26 12:03 47.64622 8.59115 6581 ft 276 kts 271°
2026-04-26 12:03 47.64633 8.56303 6306 ft 274 kts 272°
2026-04-26 12:04 47.64645 8.53468 6009 ft 273 kts 271°
2026-04-26 12:04 47.64655 8.50681 5672 ft 266 kts 271°
2026-04-26 12:04 47.64664 8.48034 5333 ft 255 kts 271°
2026-04-26 12:04 47.64671 8.45458 4985 ft 245 kts 272°
2026-04-26 12:05 47.64679 8.42986 4642 ft 236 kts 272°
2026-04-26 12:05 47.64547 8.40597 4280 ft 231 kts 251°
2026-04-26 12:05 47.63585 8.38794 3996 ft 221 kts 206°
2026-04-26 12:05 47.62215 8.38212 3987 ft 200 kts 184°
2026-04-26 12:06 47.60826 8.38251 4056 ft 196 kts 171°
2026-04-26 12:06 47.59529 8.38783 4012 ft 194 kts 154°
2026-04-26 12:06 47.58378 8.39812 3998 ft 192 kts 141°
2026-04-26 12:06 47.57357 8.41076 3826 ft 191 kts 135°
2026-04-26 12:07 47.56417 8.42387 3510 ft 180 kts 134°
2026-04-26 12:07 47.55541 8.43615 3267 ft 165 kts 134°
2026-04-26 12:07 47.54725 8.44737 3076 ft 159 kts 134°
2026-04-26 12:07 47.53914 8.45843 2913 ft 158 kts 134°
2026-04-26 12:08 47.53129 8.46907 2687 ft 149 kts 134°
2026-04-26 12:08 47.52373 8.47933 2490 ft 144 kts 134°
2026-04-26 12:08 47.51645 8.48924 2301 ft 143 kts 134°
2026-04-26 12:08 47.50909 8.49928 2131 ft 143 kts 134°
2026-04-26 12:09 47.50167 8.50938 1945 ft 143 kts 135°
2026-04-26 12:09 47.49454 8.51912 1751 ft 138 kts 135°
2026-04-26 12:09 47.48724 8.52873 1572 ft 140 kts 134°
2026-04-26 12:09 47.48016 8.53861 1423 ft 144 kts 134°
2026-04-26 12:10 47.47345 8.54801 1384 ft 104 kts 137°
2026-04-26 12:10 47.47023 8.55227 1385 ft 33 kts 136°
2026-04-26 12:10 47.46861 8.55445 1385 ft 30 kts 138°
2026-04-26 12:10 47.46709 8.55619 1388 ft 22 kts 154°
2026-04-26 12:11 47.46582 8.55683 1388 ft 19 kts 167°
2026-04-26 12:11 47.46543 8.55696 1388 ft 0 kts 167°
2026-04-26 12:11 47.46520 8.55703 1389 ft 7 kts 171°
2026-04-26 12:12 47.46444 8.55728 1389 ft 14 kts 167°
2026-04-26 12:12 47.46351 8.55798 1391 ft 14 kts 137°
2026-04-26 12:12 47.46279 8.55890 1394 ft 11 kts 159°
2026-04-26 12:12 47.46233 8.55866 1394 ft 11 kts 240°
2026-04-26 12:13 47.46245 8.55640 1390 ft 21 kts 276°
2026-04-26 12:13 47.46257 8.55475 1388 ft 11 kts 276°
2026-04-26 12:13 47.46260 8.55418 1388 ft 1 kts 252°
2026-04-26 12:13 47.46248 8.55419 1388 ft 3 kts 151°
2026-04-26 12:14 47.46210 8.55438 1388 ft 4 kts 190°
2026-04-26 12:14 47.46182 8.55435 1387 ft 0 kts 185°
2026-04-26 12:14 47.46181 8.55435 1387 ft 0 kts 186°